Date,TemperatureHighF,TemperatureAvgF,TemperatureLowF,DewpointHighF,DewpointAvgF,DewpointLowF,HumidityHigh,HumidityAvg,HumidityLow,PressureMaxIn,PressureMinIn,WindSpeedMaxMPH,WindSpeedAvgMPH,GustSpeedMaxMPH,PrecipitationSumIn
2014-2-1,53.7,37.4,26.0,33.3,26.5,22.2,87,67,39,30.36,30.05,3,0,9,0.00
2014-2-2,62.3,45.4,31.0,42.5,35.3,27.9,90,70,45,30.11,29.97,3,0,5,0.00
2014-2-3,49.2,38.8,33.7,42.5,36.7,30.2,98,92,70,30.40,30.05,4,1,9,1.52
2014-2-4,38.9,33.6,29.3,30.3,27.0,24.4,95,77,65,30.55,30.20,3,0,5,0.01
2014-2-5,40.8,35.1,31.6,37.2,32.8,24.3,98,92,67,30.21,29.76,7,0,17,0.17
2014-2-6,37.4,32.5,29.0,24.1,21.9,19.4,72,65,51,30.41,30.17,5,0,11,0.00
2014-2-7,44.3,34.2,25.0,28.7,24.5,21.7,89,68,53,30.41,30.30,4,0,5,0.00
2014-2-8,35.3,31.1,25.7,23.6,19.9,16.0,83,63,51,30.42,30.25,3,0,4,0.00
2014-2-9,35.5,31.4,24.5,30.4,25.3,20.5,92,78,67,30.27,30.05,3,0,6,0.00
2014-2-10,33.4,29.9,24.6,29.0,19.1,13.9,90,64,53,30.41,30.10,3,0,9,0.00
2014-2-11,35.0,26.9,19.7,16.8,14.0,12.5,76,59,47,30.54,30.40,6,0,10,0.00
2014-2-12,30.3,24.7,18.5,24.4,15.6,9.6,93,69,52,30.59,30.18,4,0,7,0.00
2014-2-13,37.3,33.4,25.4,36.8,32.5,23.7,98,97,89,30.18,29.35,6,1,13,0.54
2014-2-14,52.9,39.5,28.9,35.0,31.3,25.7,90,74,47,29.78,29.42,4,0,13,0.33
2014-2-15,38.5,35.9,30.2,33.9,30.0,18.8,94,79,62,30.00,29.67,3,0,16,0.10
2014-2-16,39.2,32.9,26.7,26.3,20.4,15.1,79,60,50,30.26,30.00,5,0,8,0.00
2014-2-17,37.2,31.0,23.9,24.3,17.7,14.8,81,58,42,30.51,30.27,3,0,8,0.00
2014-2-18,59.6,40.0,29.0,36.4,31.1,21.4,93,73,38,30.31,30.07,5,0,8,0.06
2014-2-19,63.7,46.3,31.2,53.9,38.6,28.9,97,77,41,30.19,29.75,7,0,11,0.12
2014-2-20,57.5,43.6,31.7,38.8,33.9,29.6,95,71,37,30.31,30.00,3,0,7,0.00
2014-2-21,69.0,47.7,36.2,62.9,44.3,35.2,98,88,76,30.03,29.68,6,0,11,0.02
2014-2-22,65.3,46.4,30.9,40.2,33.1,30.1,99,67,30,30.18,30.03,8,0,13,0.01
2014-2-23,66.0,52.4,42.4,39.5,35.6,32.5,74,54,37,30.08,29.91,8,0,8,0.00
2014-2-24,48.5,41.0,29.5,38.4,23.4,15.7,81,51,32,30.21,29.98,5,1,13,0.00
2014-2-25,37.9,31.3,27.2,31.4,24.5,17.8,91,76,52,30.20,30.06,2,0,3,0.10
2014-2-26,37.9,31.4,23.9,31.0,21.5,12.2,92,68,45,30.08,29.92,3,0,8,0.08
2014-2-27,42.9,30.4,20.6,23.6,15.4,6.2,79,55,35,30.21,29.74,7,1,15,0.00
2014-2-28,31.1,21.7,14.2,9.7,2.7,-1.3,58,44,30,30.50,30.21,4,0,13,0.00